CAPE
3 6 6 6 5 5 5 2 0 0 1 0 0 0 0 0 0 0 0 0 0 0 0 0 0 0 0 0 0 0 0 0 0 0 0 0 0 0 0 0 0 3 23 303 658
0 1 3 3 3 3 3 3 5 0 0 1 0 1 2 0 0 0 0 0 0 0 0 0 0 0 0 0 0 0 0 0 0 0 0 0 0 0 0 0 0 1 3 303 432
0 0 2 2 2 2 4 9 3 0 0 0 1 2 0 0 0 0 0 0 0 0 0 0 0 0 0 0 0 0 0 0 0 0 0 0 0 0 0 0 2 0 0 28 487
18 8 3 3 3 1 6 7 1 0 0 0 0 1 0 0 0 0 0 0 0 0 0 0 0 0 0 0 0 0 0 0 0 0 0 0 0 0 0 0 0 0 0 26 427
9 11 14 12 5 4 7 4 1 0 0 1 2 4 0 0 0 0 0 0 0 0 0 0 0 0 0 0 0 0 0 0 0 0 0 0 0 0 0 0 0 0 34 120 391
25 29 24 9 1 0 3 2 1 0 2 2 5 6 0 0 0 0 0 0 0 0 0 0 0 0 0 0 0 0 0 0 0 0 0 0 0 0 0 0 0 18 46 176 325
15 16 17 2 1 1 1 1 0 0 1 1 7 2 0 0 0 0 0 0 0 0 0 0 0 0 0 0 0 0 0 0 0 0 0 0 0 0 0 0 0 40 81 198 294
18 16 25 16 16 1 1 0 0 0 1 0 1 1 0 0 0 0 0 0 0 0 0 0 0 0 0 0 0 0 0 0 0 0 0 0 0 0 0 0 0 24 79 188 397
22 28 36 18 21 0 0 0 0 0 0 0 0 1 0 0 0 0 0 0 0 0 0 0 0 0 0 0 0 0 0 0 0 0 0 0 0 0 0 0 0 8 63 122 252
30 27 37 22 20 0 0 0 0 0 0 0 0 1 0 0 0 0 0 0 0 0 0 0 0 0 0 0 0 0 0 0 0 0 0 0 0 0 0 0 0 4 17 99 220
19 25 21 19 0 0 0 0 0 0 0 0 0 0 0 0 0 0 0 0 0 0 0 0 0 0 0 0 0 0 11 10 0 0 0 0 0 0 0 0 0 1 13 61 260
27 28 24 4 0 0 2 3 2 3 2 0 0 0 0 0 0 0 0 0 3 1 0 0 0 0 0 0 0 0 0 0 0 0 0 0 0 0 0 0 0 3 15 37 149
24 34 30 15 0 5 18 20 14 8 5 0 0 0 0 0 0 0 0 2 19 10 16 0 0 0 0 0 0 0 0 0 0 0 0 0 0 0 0 0 0 0 0 9 57
29 34 49 3 2 13 11 12 24 16 6 0 0 0 0 0 0 0 0 8 12 17 18 12 0 0 2 1 1 1 0 0 0 0 0 0 0 0 0 0 0 0 0 0 6
45 42 52 11 16 15 10 20 24 10 1 0 0 0 0 0 0 0 0 0 3 2 0 6 1 0 1 2 1 0 0 1 0 0 0 0 0 0 0 0 0 0 1 3 0
25 41 21 11 45 30 18 20 32 26 1 0 0 0 0 0 0 0 0 0 0 0 0 0 0 2 1 0 0 0 1 1 1 0 7 2 0 0 3 1 3 0 0 0 0
35 43 9 19 20 28 17 19 40 0 0 0 0 0 0 0 0 0 0 0 0 0 0 0 0 0 1 0 0 1 8 11 10 2 0 0 3 0 0 0 0 0 0 0 0
46 37 15 28 15 58 75 48 12 0 0 0 0 0 0 0 2 0 0 0 0 1 3 4 0 0 3 5 0 2 3 3 7 11 2 4 0 0 3 0 0 0 0 0 0
44 24 29 46 50 37 83 40 0 0 0 0 0 0 0 0 0 0 0 2 0 0 0 3 0 0 0 6 0 3 8 0 1 21 18 12 2 1 0 0 0 0 0 0 0
47 60 43 52 63 80 66 7 0 0 0 0 0 0 0 2 1 7 17 0 0 0 0 1 5 0 3 4 3 0 1 5 16 12 17 17 46 26 0 1 7 0 7 1 0
54 40 40 48 88 78 67 14 0 0 0 0 0 0 0 0 0 1 15 1 0 0 0 0 19 0 13 18 18 4 10 23 12 11 15 32 27 23 0 13 31 31 11 5 0
65 62 70 77 105 70 45 12 0 1 0 0 0 1 4 6 2 1 1 0 0 0 88 0 2 6 1 3 28 18 4 26 33 10 35 50 15 0 0 0 0 0 29 41 5
56 61 113 169 70 79 40 22 8 9 1 0 1 5 8 13 4 0 0 0 0 0 2 30 2 5 5 4 8 31 33 24 29 41 20 76 18 0 0 0 0 4 26 39 9
91 103 58 129 71 44 31 41 27 12 9 9 10 9 16 19 27 19 13 2 0 0 12 2 69 15 0 14 6 15 23 8 7 21 50 51 60 1 4 0 0 0 2 1 14
114 65 42 65 80 56 50 51 30 25 26 22 29 31 32 35 28 38 29 14 2 0 0 0 46 67 53 78 67 23 19 11 17 8 9 26 13 8 3 0 0 1 0 6 17
102 61 65 76 72 53 64 43 44 55 45 39 56 54 48 46 51 66 54 43 16 4 6 9 4 20 25 34 55 83 82 96 69 61 45 46 48 46 17 0 0 0 4 0 1
70 62 128 34 56 84 73 35 29 61 53 67 55 72 68 72 63 63 59 43 32 26 22 22 6 13 10 0 0 1 3 18 13 47 62 62 78 17 0 0 0 0 0 4 5
CIN
-0 -0 -0 -0 -0 -0 -0 -0 -0 -0 -0 -0 -0 -0 -0 -0 -0 -0 -0 -0 -0 -0 -0 -0 -0 -0 -0 -0 -0 -0 -0 -0 -0 -0 -0 -0 -0 -0 -0 -0 -0 -7 -4 -13 -63
-0 -0 -0 -0 -0 -0 -0 -0 -0 -0 -0 -0 -0 -0 -0 -0 -0 -0 -0 -0 -0 -0 -0 -0 -0 -0 -0 -0 -0 -0 -0 -0 -0 -0 -0 -0 -0 -0 -0 -0 -0 -1 -7 -43 -63
-0 -0 -0 -0 -0 -0 -0 -0 -0 -0 -0 -0 -0 -0 -0 -0 -0 -0 -0 -0 -0 -0 -0 -0 -0 -0 -0 -0 -0 -0 -0 -0 -0 -0 -0 -0 -0 -0 -0 -0 -1 -0 -0 -3 -39
-0 -0 -0 -0 -0 -0 -0 -0 -0 -0 -0 -0 -0 -0 -0 -0 -0 -0 -0 -0 -0 -0 -0 -0 -0 -0 -0 -0 -0 -0 -0 -0 -0 -0 -0 -0 -0 -0 -0 -0 -0 -0 -0 -21 -38
-3 -1 -0 -0 -0 -0 -0 -0 -0 -0 -0 -0 -0 -0 -0 -0 -0 -0 -0 -0 -0 -0 -0 -0 -0 -0 -0 -0 -0 -0 -0 -0 -0 -0 -0 -0 -0 -0 -0 -0 -0 -0 -52 -53 -55
-0 -0 -0 -0 -0 -0 -0 -0 -0 -0 -0 -0 -0 -0 -0 -0 -0 -0 -0 -0 -0 -0 -0 -0 -0 -0 -0 -0 -0 -0 -0 -0 -0 -0 -0 -0 -0 -0 -0 -0 -0 -51 -58 -59 -63
-0 -0 -0 -0 -0 -0 -0 -0 -0 -0 -0 -0 -0 -0 -0 -0 -0 -0 -0 -0 -0 -0 -0 -0 -0 -0 -0 -0 -0 -0 -0 -0 -0 -0 -0 -0 -0 -0 -0 -0 -0 -33 -37 -51 -103
-0 -0 -0 -0 -0 -0 -0 -0 -0 -0 -0 -0 -0 -0 -0 -0 -0 -0 -0 -0 -0 -0 -0 -0 -0 -0 -0 -0 -0 -0 -0 -0 -0 -0 -0 -0 -0 -0 -0 -0 -0 -17 -20 -39 -88
-0 -0 -0 -0 -0 -0 -0 -0 -0 -0 -0 -0 -0 -0 -0 -0 -0 -0 -0 -0 -0 -0 -0 -0 -0 -0 -0 -0 -0 -0 -0 -0 -0 -0 -0 -0 -0 -0 -0 -0 -0 -5 -10 -28 -45
-0 -0 -0 -0 -0 -0 -0 -0 -0 -0 -0 -0 -0 -0 -0 -0 -0 -0 -0 -0 -0 -0 -0 -0 -0 -0 -0 -0 -0 -0 -0 -0 -0 -0 -0 -0 -0 -0 -0 -0 -0 -6 -1 -21 -29
-2 -0 -0 -0 -0 -0 -0 -0 -0 -0 -0 -0 -0 -0 -0 -0 -0 -0 -0 -0 -0 -0 -0 -0 -0 -0 -0 -0 -0 -0 -0 -0 -0 -0 -0 -0 -0 -0 -0 -0 -0 -0 -5 -5 -16
-1 -0 -0 -0 -0 -0 -2 -0 -0 -0 -0 -0 -0 -0 -0 -0 -0 -0 -0 -0 -17 -0 -0 -0 -0 -0 -0 -0 -0 -0 -0 -0 -0 -0 -0 -0 -0 -0 -0 -0 -0 -0 -0 -0 -26
-3 -0 -0 -0 -0 -0 -0 -0 -0 -0 -0 -0 -0 -0 -0 -0 -0 -0 -0 -0 -0 -0 -0 -0 -0 -0 -0 -0 -0 -0 -0 -0 -0 -0 -0 -0 -0 -0 -0 -0 -0 -0 -0 -0 -3
-3 -1 -0 -0 -11 -0 -1 -0 -0 -0 -0 -0 -0 -0 -0 -0 -0 -0 -0 -1 -0 -0 -0 -0 -0 -0 -0 -1 -0 -0 -0 -0 -0 -0 -0 -0 -0 -0 -0 -0 -0 -0 -0 -0 -3
-0 -0 -0 -0 -0 -0 -0 -0 -0 -0 -0 -0 -0 -0 -0 -0 -0 -0 -0 -0 -0 -1 -0 -0 -1 -0 -0 -0 -1 -0 -0 -1 -0 -0 -0 -0 -0 -0 -0 -0 -0 -0 -0 -1 -0
-1 -0 -1 -7 -0 -0 -0 -0 -0 -0 -0 -0 -0 -0 -0 -0 -0 -0 -0 -0 -0 -0 -0 -0 -0 -1 -0 -0 -0 -0 -0 -0 -0 -0 -0 -0 -0 -0 -0 -0 -0 -0 -0 -0 -0
-0 -1 -10 -0 -0 -1 -0 -0 -0 -0 -0 -0 -0 -0 -0 -0 -0 -0 -0 -0 -0 -0 -0 -0 -0 -0 -1 -0 -0 -1 -0 -0 -0 -0 -0 -0 -0 -0 -0 -0 -0 -0 -0 -0 -0
-1 -4 -1 -0 -2 -0 -0 -0 -0 -0 -0 -0 -0 -0 -0 -0 -0 -0 -0 -0 -0 -0 -0 -0 -0 -0 -2 -1 -0 -0 -0 -0 -0 -0 -0 -0 -0 -6 -1 -0 -0 -0 -0 -0 -0
-4 -0 -0 -0 -0 -0 -0 -0 -0 -0 -0 -0 -0 -0 -0 -0 -0 -0 -0 -0 -0 -0 -1 -1 -0 -0 -0 -1 -0 -0 -0 -0 -0 -0 -1 -0 -0 -4 -0 -0 -0 -0 -0 -0 -0
-0 -0 -0 -0 -0 -0 -0 -0 -0 -0 -0 -0 -0 -0 -0 -0 -0 -0 -1 -0 -0 -0 -0 -0 -0 -1 -2 -0 -1 -0 -0 -0 -0 -0 -0 -0 -1 -11 -0 -0 -1 -0 -0 -0 -0
-0 -0 -0 -0 -0 -0 -0 -0 -0 -0 -0 -0 -0 -0 -0 -0 -0 -0 -7 -2 -0 -0 -0 -0 -0 -1 -1 -0 -0 -0 -0 -0 -0 -0 -0 -0 -0 -0 -0 -1 -0 -0 -1 -1 -0
-0 -0 -0 -0 -0 -0 -0 -0 -0 -0 -0 -0 -0 -0 -0 -0 -0 -0 -0 -1 -0 -0 -0 -0 -0 -0 -0 -1 -0 -0 -0 -1 -0 -5 -0 -0 -1 -0 -0 -0 -0 -0 -1 -1 -8
-0 -0 -0 -0 -0 -0 -0 -0 -0 -0 -0 -0 -0 -0 -0 -0 -0 -0 -0 -0 -0 -0 -0 -7 -0 -0 -1 -9 -3 -0 -1 -0 -0 -0 -0 -0 -0 -0 -0 -0 -0 -5 -0 -1 -1
-0 -0 -0 -0 -0 -0 -0 -0 -0 -0 -0 -0 -0 -0 -0 -0 -0 -0 -0 -1 -0 -0 -9 -0 -0 -0 -0 -1 -3 -1 -2 -2 -1 -0 -0 -0 -0 -14 -2 -0 -0 -0 -54 -18 -22
-0 -0 -0 -0 -0 -0 -0 -0 -0 -0 -0 -0 -0 -0 -0 -0 -0 -0 -0 -0 -0 -0 -0 -0 -0 -3 -1 -0 -1 -4 -1 -0 -0 -2 -5 -1 -1 -0 -2 -1 -0 -19 -0 -29 -35
-0 -0 -0 -0 -0 -0 -0 -0 -0 -0 -0 -0 -0 -1 -0 -0 -0 -0 -0 -0 -0 -1 -0 -0 -0 -0 -0 -3 -2 -0 -3 -0 -0 -0 -2 -1 -1 -2 -4 -0 -0 -3 -51 -1 -80
-0 -0 -0 -0 -0 -0 -0 -0 -0 -0 -1 -0 -0 -0 -0 -0 -0 -0 -0 -0 -0 -0 -0 -0 -0 -0 -0 -0 -0 -4 -28 -9 -4 -0 -0 -0 -1 -19 -0 -0 -0 -0 -0 -102 -157
Wind_Speed
12 13 13 14 14 14 15 15 16 17 18 19 20 21 22 22 25 22 19 12 6 6 5 12 17 17 17 18 20 14 16 16 22 13 12 8 10 13 4 11 9 7 11 8 5
12 13 14 14 14 14 15 16 15 17 18 18 20 21 22 22 25 24 7 10 10 4 14 20 21 20 17 19 18 17 15 22 17 9 9 5 10 9 8 13 14 12 8 5 6
12 12 14 14 14 15 14 15 16 18 19 18 19 20 20 24 18 2 8 7 11 12 20 21 20 20 21 17 21 20 21 21 12 7 11 12 10 9 9 12 10 12 9 5 7
13 12 14 15 16 16 16 16 18 20 19 20 20 20 21 14 9 8 5 2 4 11 15 21 21 23 22 24 20 22 22 22 20 9 14 14 14 12 11 13 10 6 6 3 8
13 14 15 16 17 18 18 18 19 21 20 19 19 17 14 11 23 21 6 5 9 8 15 18 22 21 23 22 21 21 22 21 16 16 13 15 16 15 17 14 9 3 5 6 7
12 14 16 17 18 19 19 19 20 21 20 19 18 12 13 22 19 14 6 6 4 2 14 17 16 18 20 24 20 19 18 21 21 16 17 17 18 20 14 11 6 7 10 8 8
12 13 15 17 19 19 20 21 22 22 21 20 17 10 13 26 14 9 12 10 7 6 14 17 16 15 17 18 18 17 21 17 20 19 20 16 20 21 20 15 8 10 11 9 8
13 13 13 15 17 19 21 22 22 23 23 17 9 10 12 13 13 19 18 15 8 7 12 15 18 16 19 15 13 16 20 18 19 19 18 16 20 17 16 11 12 11 11 11 12
12 14 14 15 16 20 23 25 25 23 14 7 8 10 14 3 10 12 15 18 6 6 12 15 15 17 17 16 16 19 16 22 20 17 14 14 18 19 7 8 11 10 11 11 12
13 14 15 16 16 20 24 30 20 11 10 8 8 7 10 10 6 3 2 9 7 4 15 16 12 16 16 14 16 17 19 19 18 14 15 17 19 18 11 11 11 12 11 11 12
13 15 16 16 17 20 20 18 1 9 7 14 13 16 20 6 12 11 6 7 9 15 18 16 16 21 22 20 21 24 19 16 12 12 11 15 19 15 16 15 12 13 11 12 13
13 14 16 18 18 20 17 7 7 6 15 16 20 21 22 19 13 14 5 12 8 14 17 18 22 20 21 19 21 27 24 15 15 4 5 15 19 18 15 17 9 13 12 11 12
11 14 16 17 19 12 8 7 8 9 9 11 7 7 5 7 16 13 12 14 7 12 19 19 16 23 18 18 23 24 23 19 18 9 8 15 19 19 17 16 13 9 12 10 13
12 12 14 16 11 10 3 6 8 6 8 6 4 4 4 3 6 19 12 10 10 12 17 18 28 8 17 22 20 23 18 19 17 16 13 11 14 15 19 22 16 18 15 13 11
11 12 13 10 12 7 8 8 9 1 8 5 6 4 3 7 7 2 21 10 14 12 4 14 11 18 20 18 20 23 16 15 16 18 17 17 11 14 14 14 15 14 17 17 13
12 11 12 12 8 10 8 12 7 6 6 5 2 3 7 8 7 4 7 20 6 10 20 21 25 17 15 18 19 15 15 16 11 15 16 16 15 13 11 14 15 4 9 14 14
11 10 11 10 9 7 8 9 9 8 6 4 1 5 12 9 5 10 8 17 13 9 18 21 23 24 13 15 23 19 12 10 12 13 15 16 15 15 10 0 6 8 7 9 9
10 9 11 10 7 8 8 7 11 4 3 3 4 12 10 7 2 9 9 11 19 20 8 17 15 23 15 15 16 19 18 10 12 11 13 18 8 7 8 2 1 2 4 6 13
9 10 12 9 10 8 7 11 6 7 4 5 11 12 6 2 5 4 10 4 9 19 16 12 20 12 20 13 16 17 22 21 18 11 8 6 10 14 6 8 7 9 9 9 13
9 8 12 10 10 7 7 14 12 5 4 5 7 2 6 3 8 6 9 7 4 5 15 15 17 15 17 14 21 21 10 18 13 11 11 9 13 4 7 5 3 2 3 4 9
7 5 2 10 9 6 10 15 11 7 5 7 9 7 10 8 7 8 4 4 9 10 12 16 10 6 11 18 19 18 18 12 15 14 9 13 9 7 1 4 4 6 8 6 0
7 5 5 9 10 7 11 13 7 11 11 13 8 11 11 11 11 9 4 6 9 13 11 16 7 12 15 19 22 22 20 18 10 5 12 9 5 3 10 8 9 4 6 9 5
5 8 4 9 9 11 13 19 20 13 14 10 13 13 14 10 8 10 7 4 5 12 10 13 10 10 15 10 8 14 19 19 17 15 13 8 8 12 8 5 10 12 12 10 10
4 5 9 8 11 12 16 15 17 14 18 15 12 12 15 14 14 10 11 2 5 5 11 6 12 14 13 13 10 13 10 10 11 9 14 14 13 9 10 4 6 11 12 11 11
8 7 6 8 14 17 15 7 20 17 14 16 14 18 14 16 15 17 18 14 14 4 8 4 6 13 9 3 9 7 15 14 13 15 11 13 12 12 8 4 6 9 13 12 10
5 6 7 12 12 18 19 17 18 15 17 17 16 17 18 19 16 15 12 12 11 4 6 5 4 7 9 4 4 5 8 10 11 13 13 14 12 11 2 3 3 8 12 13 14
8 7 5 7 15 12 13 20 18 18 14 17 14 16 13 12 9 9 13 12 11 13 9 9 8 5 3 7 2 5 13 11 11 13 13 13 6 9 4 4 5 6 11 13 14
Wind_Direction
341 339 340 340 337 337 338 335 333 330 327 325 322 322 324 318 308 295 270 281 334 343 289 211 215 215 224 225 228 237 258 254 260 240 256 151 236 238 242 280 241 228 269 22 120
339 338 336 336 333 334 332 329 323 322 320 318 320 321 324 322 305 285 15 355 293 214 243 214 207 212 215 218 219 230 240 248 273 308 247 206 234 277 243 257 231 229 232 190 246
327 328 325 329 331 331 329 322 318 319 319 319 319 319 322 315 295 39 24 309 276 200 241 236 224 216 225 223 216 218 242 262 284 273 277 261 258 259 256 263 290 341 317 183 214
320 324 324 326 327 327 325 318 316 312 313 314 315 322 320 295 278 65 43 334 197 201 229 242 226 224 228 232 226 231 246 249 270 271 245 252 262 276 259 271 292 291 302 230 222
326 327 324 324 326 327 321 315 309 303 302 304 311 323 313 272 250 269 46 231 219 201 231 237 227 229 227 235 235 231 241 259 244 256 249 259 263 264 270 277 246 237 249 226 232
324 329 327 329 329 325 316 307 299 296 295 301 301 304 268 267 269 272 255 276 346 254 254 239 233 233 240 243 248 241 242 256 258 249 242 242 254 258 257 255 251 222 231 229 212
335 334 332 331 324 320 309 301 297 294 295 296 288 254 256 251 292 277 207 269 291 289 282 266 262 261 242 262 263 256 259 257 243 248 248 243 254 251 258 253 228 215 222 200 209
334 334 333 324 320 313 304 297 294 293 293 291 258 226 259 273 291 248 259 245 244 265 260 274 285 271 263 273 250 245 242 250 242 227 236 238 259 267 232 172 224 216 209 205 195
334 332 329 325 322 311 307 300 294 287 275 273 197 220 264 97 244 251 239 251 223 239 264 261 253 248 234 242 249 233 238 229 246 248 224 208 255 245 136 201 244 227 217 204 210
329 330 327 325 323 313 308 295 282 281 227 224 258 220 245 295 344 276 236 223 196 176 265 239 235 237 227 231 232 236 217 246 258 203 206 231 238 265 196 221 237 246 212 209 211
330 327 324 325 321 313 312 298 223 200 244 287 289 260 298 327 307 254 161 176 193 171 238 228 222 227 226 220 252 269 263 262 245 242 210 237 252 241 248 201 224 222 227 215 208
322 324 321 322 313 310 294 19 38 342 298 278 262 262 265 267 276 284 191 209 191 210 208 264 229 232 237 242 238 250 259 259 268 227 219 262 262 248 244 261 228 232 211 221 206
318 320 320 316 310 289 329 354 318 350 270 305 259 277 301 230 234 247 226 234 202 199 236 233 246 226 246 232 238 239 244 247 259 259 207 259 266 259 248 249 243 229 256 224 210
313 319 313 318 283 316 311 329 344 335 276 140 157 126 161 180 223 234 254 228 188 231 221 251 233 155 229 237 238 243 232 251 261 257 257 265 267 261 228 231 212 224 221 230 208
309 315 313 305 311 308 325 325 310 332 280 101 118 67 124 240 331 185 205 228 223 225 245 245 224 239 225 234 226 254 258 257 237 254 260 259 257 269 264 239 230 245 228 202 213
306 309 320 276 250 275 334 315 268 231 229 143 144 311 271 242 221 117 181 217 210 237 271 270 289 282 248 232 258 266 222 256 239 246 243 243 254 267 256 202 218 232 233 212 188
300 302 295 299 280 314 304 277 237 246 125 111 64 313 304 281 249 191 187 196 204 193 230 250 268 267 235 225 235 232 207 211 216 221 236 236 232 235 271 71 273 258 233 176 200
285 295 267 257 253 282 277 236 246 9 238 34 291 300 279 336 165 186 204 202 232 241 244 229 233 244 222 246 224 212 214 221 220 226 228 215 227 260 194 238 245 275 238 248 168
287 262 246 239 237 239 248 224 245 271 4 314 299 267 251 239 292 243 219 299 211 225 232 287 231 218 222 207 263 219 219 238 270 246 275 156 218 271 204 229 221 221 232 224 218
279 288 256 219 205 215 223 236 257 256 304 260 267 278 286 12 295 293 198 72 2 304 278 252 269 258 193 205 229 254 235 219 225 239 236 232 203 235 150 201 137 263 12 332 286
265 253 193 186 182 215 223 223 249 239 225 250 260 264 279 298 309 303 109 151 29 341 301 264 268 227 258 203 207 230 233 238 234 225 240 234 250 241 201 65 42 37 13 339 354
248 223 129 166 197 208 226 229 306 262 222 251 263 272 273 289 290 279 281 334 30 334 313 222 259 246 242 222 222 204 226 231 226 241 238 249 251 164 72 28 341 288 360 24 49
237 237 169 199 215 220 235 228 250 252 243 237 233 245 263 271 277 246 272 68 57 324 355 353 224 245 204 260 206 239 218 215 234 235 219 249 231 207 97 51 327 343 358 355 354
260 224 211 204 247 267 229 231 236 221 252 246 253 251 249 249 257 271 261 285 321 317 314 291 268 257 237 244 242 204 206 214 241 230 235 225 253 262 265 277 329 352 330 321 325
215 245 224 203 223 228 246 249 226 230 227 242 232 246 246 247 253 254 263 270 279 163 286 286 298 322 283 294 280 222 206 223 231 236 250 247 258 263 269 39 351 322 324 326 340
196 232 239 258 241 222 224 245 253 248 219 221 234 233 234 246 253 257 268 270 274 276 304 200 283 289 240 192 268 225 254 245 232 240 244 242 245 234 34 315 336 355 345 355 352
226 243 281 254 248 233 224 220 242 247 248 245 225 246 255 260 303 276 284 290 268 277 297 289 240 208 289 293 269 261 233 230 246 250 250 249 292 49 250 332 17 15 15 1 359